Weather Roundup
Issued by NWS Chicago, IL

Home | Current Version | Previous Version | Text Only | Print | Product List | Glossary Off
Versions: 1 2 3 4 5 6 7 8 9 10 11 12 13 14 15 16 17 18 19 20 21 22 23 24 25 26 27 28 29 30 31 32 33 34 35 36 37 38 39 40 41 42 43 44 45 46 47 48 49 50

000
NZUS59 KLOT 012108
HRRLOT

CHICAGO AREA WEATHER ROUNDUP
NATIONAL WEATHER SERVICE CHICAGO/ROMEOVILLE IL
400 PM CDT WED JUL 01 2015

NOTE: "FAIR" INDICATES FEW OR NO CLOUDS BELOW 12,000 FEET WITH NO
SIGNIFICANT WEATHER AND/OR OBSTRUCTIONS TO VISIBILITY.

* THESE STATIONS ARE NOT UNDER NWS QUALITY CONTROL. THEY ALSO MAY NOT
  REPORT WEATHER SUCH AS PRECIPITATION OR FOG.

ILZ005-006-012>014-019>023-012200-
NORTHEAST ILLINOIS

CITY           SKY/WX    TMP DP  RH WIND       PRES   REMARKS
OHARE          CLOUDY    63  51  65 NE10      29.96F
MIDWAY         PTSUNNY   65  52  62 E13       29.96F
AURORA         MOSUNNY   73  55  53 N5        29.94F
LANSING*       MOSUNNY   63  50  63 NE9G16    29.97S
JOLIET*        MOSUNNY   74  60  60 E13       29.94F
WAUKEGAN       PTSUNNY   59  51  75 NE13      29.97F
DUPAGE AIRPORT MOSUNNY   71  55  56 E7        29.93F
WHEELING       PTSUNNY   60  49  66 NE10      29.98S
KANKAKEE*      CLOUDY    69  60  71 NE8       29.94F
MORRIS*        PTSUNNY   71  57  61 E5        29.92F
LEWIS AIRPORT* MOSUNNY   69  56  64 E10       29.95S
NORTHERLY IS     N/A     59  50  72 NE10        N/A
$$

WIZ051-052-058>065-066-070>072-012200-
SOUTHEAST WISCONSIN

CITY           SKY/WX    TMP DP  RH WIND       PRES   REMARKS
MILWAUKEE      CLOUDY    57  50  77 NE9       30.00R
KENOSHA*       CLOUDY    60  51  72 E10       29.99S
RACINE*        PTSUNNY   58  50  75 E12       30.01R
BURLINGTON     CLOUDY    63  52  68 E10       29.97R
WAUKESHA       MOSUNNY   63  52  67 E7        29.98S
WEST BEND      PTSUNNY   64  52  63 E5        29.97F
$$

INZ001>003-010>013-019-020-012200-
NORTHWEST INDIANA

CITY           SKY/WX    TMP DP  RH WIND       PRES   REMARKS
GARY*          PTSUNNY   63  54  72 NE12      29.98S
MICHIGAN CITY* NOT AVBL
RENSSELAER*    NOT AVBL
VALPARAISO     PTSUNNY   66  53  63 N8G16     29.96F
$$

LMZ740>746-012200-
SOUTHERN LAKE MICHIGAN

STATION/POSITION TIME  SKY/WX   TEMP WIND        PRES    VSBY
                                AIR  DIR/SP/G
                 (UTC)          (F)  (DEG/KT/KT) (MB)    (MI)
HARRISON CRIB    2000            56   60/ 10/ 12   N/A
BURNHAM HARBOR   2100            59   60/  9/ 11   N/A
CALUMET HARBOR   2000            60   30/  8/ 12   N/A
BURNS HARBOR     2000            60   40/ 13/ 15 1015.6S
MICHIGAN CITY    2000            57  360/ 11/ 13   N/A
$$

ABBREVIATIONS USED IN REMARKS
   TC - TEMPERATURE IN CELSIUS
  WCI - WIND CHILL INDEX
   HX - HEAT INDEX
  VSB - VISIBILITY
$$



USA.gov is the U.S. government's official web portal to all federal, state and local government web resources and services.